Weather History for MMTC - November, 2012

Change the Weather History Date:

Saturday, November 17, 2012

  Actual Average Record
Temperature  
Mean Temperature 68 °F -  
Max Temperature 81 °F 71 °F 84 °F (2013)
Min Temperature 56 °F 46 °F 41 °F (1997)
Cooling Degree Days 4    
Growing Degree Days 18 (Base 50)    
Moisture  
Dew Point 51 °F    
Average Humidity 56    
Maximum Humidity 84    
Minimum Humidity 39    
Precipitation  
Precipitation 0.02 in - - ()
Sea Level Pressure  
Sea Level Pressure 30.12 in    
Wind  
Wind Speed 3 mph ()    
Max Wind Speed 9 mph    
Max Gust Speed -    
Visibility 10.3 miles    
Events Rain    
Averages and records for this station are not official NWS values.
T = Trace of Precipitation, MM = Missing Value Source: Averaged Metar Reports

Daily Weather History Graph

Daily Weather History Graph

Search for Another Location

Airport or City:

Trip Planner

Search our weather history database for the weather conditions in past years. The results will help you decide how hot, cold, wet, or windy it might be!

Date:

Astronomy

Nov. 17, 2012 Rise Set
Actual Time 7:13 AM CST 6:04 PM CST
Civil Twilight 6:48 AM CST 6:28 PM CST
Nautical Twilight 6:20 AM CST 6:56 PM CST
Astronomical Twilight 5:53 AM CST 7:24 PM CST
Moon 10:59 AM CST (11/17) 10:14 PM CST (11/17)
Length of Visible Light 11h 40m
Length of Day
10h 51m
Waxing Crescent, 20% of the Moon is Illuminated
Nov 17
Waxing Crescent
Nov 20
First Quarter
Nov 28
Full
Dec 6
Last Quarter
Dec 13
New

Hourly Weather History & Observations

Time (CST) Temp. Dew Point Humidity Pressure Visibility Wind Dir Wind Speed Gust Speed Precip Events Conditions
2:45 AM 60 °F 54 °F 76% 30.02 in 6 mi ENE 4.5 mph - -  
5:48 AM 57 °F 54 °F 84% 30.07 in 6 mi NE 2.2 mph - -  
6:40 AM 53.6 °F 48.2 °F 82% 30.24 in 10.0 mi Calm Calm - N/A   Scattered Clouds
7:40 AM 53.6 °F 46.4 °F 77% 30.26 in 10.0 mi Calm Calm - N/A   Clear
8:45 AM 60.8 °F 48.2 °F 63% 30.16 in 10.0 mi Calm Calm - N/A   Clear
8:50 AM 58 °F 53 °F 77% 30.17 in 19 mi ESE 2.2 mph - -  
9:42 AM 60.8 °F 50.0 °F 68% 30.29 in 7.0 mi East 3.5 mph - N/A   Clear
10:40 AM 64.4 °F 50.0 °F 59% 30.28 in 7.0 mi Calm Calm - N/A   Partly Cloudy
11:50 AM 70 °F 56 °F 53% 30.15 in 19 mi East 4.5 mph - -  
11:52 AM 68.0 °F 50.0 °F 52% 30.12 in 7.0 mi Calm Calm - N/A   Partly Cloudy
12:46 PM 69.8 °F 50.0 °F 49% 30.21 in 8.0 mi East 9.2 mph - N/A   Scattered Clouds
1:47 PM 73.4 °F 50.0 °F 44% 30.18 in 10.0 mi East 5.8 mph - N/A   Scattered Clouds
2:46 PM 78 °F 58 °F 40% 30.02 in 19 mi ESE 4.5 mph - -   Clear
2:49 PM 75.2 °F 50.0 °F 41% 29.97 in 10.0 mi ESE 6.9 mph - N/A   Scattered Clouds
3:40 PM 77.0 °F 50.0 °F 39% 30.13 in 10.0 mi East 6.9 mph - N/A   Mostly Cloudy
4:48 PM 73.4 °F 50.0 °F 44% 30.12 in 10.0 mi NE 4.6 mph - N/A   Mostly Cloudy
5:46 PM 74 °F 57 °F 46% 29.95 in 19 mi NNE 4.5 mph - -   Partly Cloudy
5:48 PM 73.4 °F 48.2 °F 41% 29.99 in 10.0 mi NNE 3.5 mph - N/A   Mostly Cloudy
6:40 PM 73.4 °F 48.2 °F 41% 30.12 in 10.0 mi ENE 2.3 mph - N/A   Mostly Cloudy
7:44 PM 68.0 °F 48.2 °F 49% 30.15 in 10.0 mi Calm Calm - N/A   Mostly Cloudy
8:46 PM 68.0 °F 46.4 °F 46% 30.03 in 10.0 mi NE 4.6 mph - N/A   Mostly Cloudy
8:48 PM 69 °F 56 °F 54% 29.98 in 6 mi NE 2.2 mph - -   Partly Cloudy
9:47 PM 66.2 °F 48.2 °F 52% 30.21 in 10.0 mi Calm Calm - N/A   Mostly Cloudy
10:15 PM 64.4 °F 51.8 °F 64% 30.19 in 10.0 mi Calm Calm - N/A Rain Light Rain
10:46 PM 64.4 °F 50.0 °F 59% 30.20 in 10.0 mi ESE 2.3 mph - N/A   Mostly Cloudy
11:48 PM 65 °F 57 °F 69% 30.00 in 6 mi East 2.2 mph - - Rain Light Drizzle